| time (UTC) | temp F | wind direction | speed knots | gust knots | rain 1hr in | rain 24hr in | rain mn in | humidity % | barometer mb |
| 20260504220133 | 81 | 123 | 2.6 | 8.7 | 0.00 | 0.00 | 0.00 | 55 | 1009.8 |
| 20260504214606 | 82 | 254 | 2.6 | 13.9 | 0.00 | 0.00 | 0.00 | 55 | 1009.7 |
| 20260504213056 | 82 | 148 | 3.5 | 17.4 | 0.00 | 0.00 | 0.00 | 54 | 1010.0 |
| 20260504211553 | 82 | 213 | 1.7 | 13.0 | 0.00 | 0.00 | 0.00 | 57 | 1010.3 |
| 20260504210151 | 82 | 169 | 4.3 | 12.2 | 0.00 | 0.00 | 0.00 | 56 | 1010.6 |
| 20260504204557 | 81 | 128 | 1.7 | 7.8 | 0.00 | 0.00 | 0.00 | 56 | 1011.0 |
| 20260504203057 | 81 | 154 | 2.6 | 12.2 | 0.00 | 0.00 | 0.00 | 57 | 1011.3 |
| 20260504201549 | 81 | 179 | 1.7 | 13.9 | 0.00 | 0.00 | 0.00 | 57 | 1011.6 |
| 20260504200149 | 81 | 138 | 1.7 | 9.6 | 0.00 | 0.00 | 0.00 | 55 | 1011.7 |
| 20260504194602 | 80 | 218 | 4.3 | 14.8 | 0.00 | 0.00 | 0.00 | 55 | 1012.0 |
| 20260504193056 | 80 | 135 | 3.5 | 16.5 | 0.00 | 0.00 | 0.00 | 55 | 1012.2 |
| 20260504191608 | 80 | 189 | 3.5 | 8.7 | 0.00 | 0.00 | 0.00 | 55 | 1012.3 |
| 20260504190147 | 79 | 145 | 2.6 | 13.9 | 0.00 | 0.00 | 0.00 | 58 | 1012.6 |
| 20260504184549 | 78 | 230 | 4.3 | 14.8 | 0.00 | 0.00 | 0.00 | 60 | 1012.7 |
| 20260504183047 | 78 | 162 | 3.5 | 9.6 | 0.00 | 0.00 | 0.00 | 59 | 1012.9 |
| 20260504181551 | 78 | 121 | 0.9 | 11.3 | 0.00 | 0.00 | 0.00 | 60 | 1013.3 |
| 20260504180142 | 78 | 135 | 3.5 | 8.7 | 0.00 | 0.00 | 0.00 | 62 | 1013.2 |
| 20260504174550 | 77 | 157 | 4.3 | 13.0 | 0.00 | 0.00 | 0.00 | 61 | 1013.4 |
| 20260504173045 | 74 | 223 | 3.5 | 13.9 | 0.00 | 0.00 | 0.00 | 65 | 1014.1 |
| 20260504171549 | 74 | 216 | 3.5 | 14.8 | 0.00 | 0.00 | 0.00 | 66 | 1014.4 |
| 20260504170140 | 73 | 196 | 1.7 | 10.4 | 0.00 | 0.00 | 0.00 | 67 | 1014.4 |
| 20260504160137 | 73 | 211 | 2.6 | 7.0 | 0.00 | 0.00 | 0.00 | 66 | 1014.9 |
| 20260504150137 | 70 | 178 | 2.6 | 10.4 | 0.00 | 0.00 | 0.00 | 67 | 1015.1 |
| 20260504140133 | 65 | 115 | 2.6 | 10.4 | 0.00 | 0.00 | 0.00 | 74 | 1015.0 |
| 20260504130151 | 61 | 190 | 2.6 | 6.1 | 0.00 | 0.00 | 0.00 | 79 | 1015.0 |
| 20260504120147 | 58 | 218 | 0.0 | 4.3 | 0.00 | 0.00 | 0.00 | 81 | 1014.2 |
| 20260504110145 | 58 | 181 | 0.9 | 5.2 | 0.00 | 0.00 | 0.00 | 80 | 1014.8 |
| 20260504100143 | 60 | 105 | 0.9 | 7.0 | 0.00 | 0.00 | 0.00 | 78 | 1014.7 |
| 20260504081538 | 61 | 183 | 1.7 | 7.0 | 0.00 | 0.00 | 0.00 | 74 | 1015.2 |
| 20260504080136 | 61 | 221 | 0.9 | 7.0 | 0.00 | 0.00 | 0.00 | 73 | 1015.4 |
| 20260504070134 | 63 | 212 | 1.7 | 7.0 | 0.00 | 0.00 | 0.00 | 70 | 1016.4 |
| 20260504060151 | 64 | 132 | 0.9 | 5.2 | 0.00 | 0.00 | 0.00 | 67 | 1017.0 |
| 20260504050147 | 64 | 221 | 0.9 | 5.2 | 0.00 | 0.00 | 0.00 | 65 | 1017.2 |
| 20260504044546 | 64 | 180 | 0.0 | 7.8 | 0.00 | 0.00 | 0.00 | 64 | 1017.3 |
| 20260504043051 | 63 | 180 | 1.7 | 7.8 | 0.00 | 0.00 | 0.00 | 64 | 1017.4 |
| 20260504041545 | 63 | 177 | 0.0 | 3.5 | 0.00 | 0.00 | 0.00 | 62 | 1017.6 |
| 20260504040145 | 62 | 111 | 0.0 | 4.3 | 0.00 | 0.00 | 0.00 | 62 | 1017.5 |
| 20260504034543 | 61 | 209 | 0.0 | 2.6 | 0.00 | 0.00 | 0.00 | 62 | 1017.5 |
| 20260504033043 | 61 | 211 | 0.0 | 0.0 | 0.00 | 0.00 | 0.00 | 62 | 1017.4 |
| 20260504031544 | 62 | 213 | 0.0 | 0.0 | 0.00 | 0.00 | 0.00 | 62 | 1017.3 |
| 20260504030141 | 63 | 213 | 0.0 | 1.7 | 0.00 | 0.00 | 0.00 | 57 | 1017.3 |
| 20260504024540 | 64 | 213 | 0.0 | 0.9 | 0.00 | 0.00 | 0.00 | 53 | 1017.3 |
| 20260504023041 | 64 | 212 | 0.0 | 0.9 | 0.00 | 0.00 | 0.00 | 53 | 1017.1 |
| 20260504021541 | 65 | 213 | 0.0 | 1.7 | 0.00 | 0.00 | 0.00 | 53 | 1017.3 |
| 20260504020141 | 65 | 169 | 0.0 | 1.7 | 0.00 | 0.00 | 0.00 | 53 | 1017.2 |
| 20260504014541 | 66 | 169 | 0.0 | 1.7 | 0.00 | 0.00 | 0.00 | 52 | 1016.7 |
| 20260504013050 | 67 | 169 | 0.0 | 1.7 | 0.00 | 0.00 | 0.00 | 49 | 1016.7 |
| 20260504011538 | 69 | 169 | 0.0 | 1.7 | 0.00 | 0.00 | 0.00 | 48 | 1016.8 |
| 20260504010136 | 70 | 178 | 0.0 | 2.6 | 0.00 | 0.00 | 0.00 | 46 | 1016.7 |
| 20260504004609 | 71 | 196 | 0.0 | 2.6 | 0.00 | 0.00 | 0.00 | 44 | 1016.6 |